Regional Weather Roundup
Issued by NWS

Home | Current Version | Previous Version | Text Only | Print | Product List | Glossary On
Versions: 1 2 3 4 5 6 7 8 9 10 11 12 13 14 15 16 17 18 19 20 21 22 23 24 25 26 27 28 29 30 31 32 33 34 35 36 37 38 39 40 41 42 43 44 45 46 47 48 49 50
000
ASUS43 KTOP 050108
RWRKS

WEATHER ROUNDUP FOR KANSAS
NATIONAL WEATHER SERVICE GOODLAND KS
800 PM CDT SAT JUL 04 2015

NOTE:  "FAIR" INDICATES FEW OR NO CLOUDS BELOW 12,000 FEET WITH NO
SIGNIFICANT WEATHER AND/OR OBSTRUCTIONS TO VISIBILITY.

KSZ001>006-013>018-027>032-041>047-050200-
NORTHWEST KANSAS

CITY           SKY/WX    TMP DP  RH WIND       PRES   REMARKS
GOODLAND       SUNNY     87  61  41 SE18G29   29.87S
HAYS           SUNNY     88  63  42 SE18      29.88R
HILL CITY      SUNNY     90  62  39 SE15G24   29.86S
RUSSELL        SUNNY     87  63  44 S16       29.87S
$$

KSZ061>065-074>080-084>089-050200-
SOUTHWEST KANSAS

CITY           SKY/WX    TMP DP  RH WIND       PRES   REMARKS
DODGE CITY     PTSUNNY   87  62  43 S15       29.90R
ELKHART          N/A     88  60  38 S12         N/A
GARDEN CITY    SUNNY     85  63  47 S13G24    29.88S
GREAT BEND     MOSUNNY   88  64  45 SE10      29.88S
LIBERAL        PTSUNNY   81  63  54 SE10      29.91S
PRATT          CLEAR     88  59  37 SE10G16   29.91R
$$

KSZ066>073-081>083-090>101-050200-
SOUTHEAST KANSAS

CITY           SKY/WX    TMP DP  RH WIND       PRES   REMARKS
CHANUTE        CLEAR     82  66  58 E7        29.92S
COFFEYVILLE    PTCLDY    85  67  54 SE5       29.90S
HUTCHINSON     CLEAR     87  62  43 SE9       29.89S
MEDICINE LODGE   N/A     90  66  45 S8        29.87S
NEWTON         CLEAR     84  61  45 SE12      29.94S
PARSONS        CLEAR     84  69  60 VRB3      29.93R
WICHITA INTL   PTCLDY    87  64  46 SE10      29.89S
WICHITA JABRA  CLEAR     85  63  47 SE10      29.90S
WICHITA MCCONL CLEAR     87  64  47 SE9       29.90S
WINFIELD       CLEAR     86  65  49 S10       29.91S
$$

KSZ007>012-019>026-033>040-048>060-102>105-050200-
NORTHEAST KANSAS

CITY           SKY/WX    TMP DP  RH WIND       PRES   REMARKS
CONCORDIA      CLEAR     82  61  48 SE9       29.89F
EMPORIA        CLEAR     82  62  50 SE7       29.92R
LAWRENCE       PTCLDY    76  66  71 SE6       29.93S
MANHATTAN      CLEAR     82  67  60 E8        29.90S
MARYSVILLE     CLEAR     79  64  61 SE9       29.91S
OLATHE IND     PTCLDY    78  64  61 SE7       29.95S
OLATHE EXE     PTCLDY    77  64  64 SE7       29.94F
SALINA         CLEAR     88  61  40 SE13      29.88S
TOPEKA BILLARD PTCLDY    81  64  56 E5        29.93R
TOPEKA FORBES  PTCLDY    81  65  58 SE6       29.93R
$$


USA.gov is the U.S. government's official web portal to all federal, state and local government web resources and services.